User: anonymous   Login
Location: Unspecified
(0.0000°N, 0.0000°E)
Time: 07:41:48
(UTC+00:00)
Language:

ZACube-1 - Orbit

View from above orbital plane
View from above orbital plane
View from above satellite
View from above satellite

Ground track
Ground track

The orbit data is extracted from the following two-line orbital elements,

1 39417U 13066B   17289.66004375  .00000361  00000-0  52134-4 0  9997
2 39417  97.6174 325.9348 0058126 231.6183 127.9801 14.80792919210753
Epoch (UTC): 16 October 2017 15:50:27
Eccentricity: 0.0058126
inclination: 97.6174°
perigee height: 586 km
apogee height: 667 km
right ascension of ascending node: 325.9348°
argument of perigee: 231.6183°
revolutions per day: 14.80792919
mean anomaly at epoch: 127.9801°
orbit number at epoch: 21075

The dashed part of the orbit path shows where the satellite is in the earth's shadow,  

DLR